Weather History for Thermal, CA

Change the Weather History Date:

Tuesday, March 5, 2013

  Actual Average Record
Temperature  
Mean Temperature 64 °F 62 °F  
Max Temperature 81 °F 79 °F 99 °F (1972)
Min Temperature 47 °F 45 °F 29 °F (1997)
Degree Days  
Heating Degree Days 1 4  
Month to date heating degree days 3 23  
Since 1 July heating degree days 1091 1088  
Cooling Degree Days 0 1  
Month to date cooling degree days 6 5  
Year to date cooling degree days 6 17  
Growing Degree Days 14 (Base 50)    
Moisture  
Dew Point 42 °F    
Average Humidity 51    
Maximum Humidity 80    
Minimum Humidity 21    
Precipitation  
Precipitation 0.00 in 0.02 in 0.47 in (2000)
Month to date precipitation 0.00 0.10  
Year to date precipitation 0.37 1.43  
Since 1 July precipitation 2.55 2.81  
Snow  
Snow 0.00 in - - ()
Month to date snowfall 0.0  
Year to date snowfall 0.0  
Since 1 July snowfall 0.0  
Snow Depth 0.00 in    
Sea Level Pressure  
Sea Level Pressure 29.96 in    
Wind  
Wind Speed 5 mph (NE)    
Max Wind Speed 17 mph    
Max Gust Speed 23 mph    
Visibility 10 miles    
Events      
T = Trace of Precipitation, MM = Missing Value Source: NWS Daily Summary

Daily Weather History Graph

Daily Weather History Graph

Search for Another Location

Airport:

Trip Planner

Search our weather history database for the weather conditions in past years. The results will help you decide how hot, cold, wet, or windy it might be!

Date:

Astronomy

Mar. 05, 2013 Rise Set
Actual Time 6:07 AM PST 5:44 PM PST
Civil Twilight 5:42 AM PST 6:09 PM PST
Nautical Twilight 5:13 AM PST 6:38 PM PST
Astronomical Twilight 4:45 AM PST 7:07 PM PST
Moon 1:11 AM PST (3/5) 11:40 AM PST (3/5)
Length of Visible Light 12h 27m
Length of Day
11h 37m
Last Quarter, 39% of the Moon is Illuminated
Mar 5
Last Quarter
Mar 11
New
Mar 19
First Quarter
Mar 27
Full
Apr 2
Last Quarter

Hourly Weather History & Observations

Time (PST) Temp. Dew Point Humidity Pressure Visibility Wind Dir Wind Speed Gust Speed Precip Events Conditions
12:52 AM 48.9 °F 39.9 °F 71% 30.01 in 10.0 mi Calm Calm - N/A   Clear
1:52 AM 59.0 °F 44.1 °F 58% 30.00 in 10.0 mi North 5.8 mph - N/A   Clear
2:52 AM 55.9 °F 43.0 °F 62% 29.99 in 10.0 mi NNW 3.5 mph - N/A   Clear
3:52 AM 48.0 °F 42.1 °F 80% 29.99 in 10.0 mi Calm Calm - N/A   Clear
4:52 AM 54.0 °F 42.1 °F 64% 30.00 in 10.0 mi North 6.9 mph - N/A   Clear
5:52 AM 51.1 °F 41.0 °F 68% 30.00 in 10.0 mi Calm Calm - N/A   Clear
6:52 AM 52.0 °F 42.1 °F 69% 30.02 in 10.0 mi NE 4.6 mph - N/A   Clear
7:52 AM 60.1 °F 43.0 °F 53% 30.04 in 10.0 mi North 3.5 mph - N/A   Clear
8:52 AM 61.0 °F 46.0 °F 58% 30.04 in 10.0 mi Calm Calm - N/A   Clear
9:52 AM 68.0 °F 45.0 °F 43% 30.03 in 10.0 mi Calm Calm - N/A   Clear
10:52 AM 72.0 °F 42.1 °F 34% 30.02 in 9.0 mi Variable 3.5 mph - N/A   Clear
11:52 AM 75.0 °F 43.0 °F 32% 30.00 in 10.0 mi SE 8.1 mph - N/A   Clear
12:52 PM 78.1 °F 39.9 °F 25% 29.96 in 10.0 mi SSE 15.0 mph - N/A   Clear
1:52 PM 81.0 °F 37.0 °F 21% 29.92 in 10.0 mi SE 12.7 mph 21.9 mph N/A   Clear
2:52 PM 80.1 °F 37.0 °F 21% 29.90 in 10.0 mi SE 17.3 mph 23.0 mph N/A   Clear
3:52 PM 79.0 °F 39.0 °F 24% 29.88 in 10.0 mi SE 15.0 mph 23.0 mph N/A   Clear
4:52 PM 77.0 °F 41.0 °F 28% 29.89 in 10.0 mi SE 8.1 mph - N/A   Clear
5:52 PM 70.0 °F 43.0 °F 38% 29.89 in 10.0 mi SE 6.9 mph - N/A   Clear
6:52 PM 69.1 °F 45.0 °F 42% 29.90 in 10.0 mi East 4.6 mph - N/A   Clear
7:52 PM 64.0 °F 44.1 °F 48% 29.91 in 10.0 mi NNW 6.9 mph - N/A   Clear
8:52 PM 66.0 °F 43.0 °F 43% 29.91 in 10.0 mi WNW 3.5 mph - N/A   Clear
9:52 PM 62.1 °F 44.1 °F 52% 29.92 in 10.0 mi NW 4.6 mph - N/A   Clear
10:52 PM 63.0 °F 44.1 °F 50% 29.92 in 10.0 mi NNW 8.1 mph - N/A   Clear
11:52 PM 61.0 °F 45.0 °F 56% 29.92 in 10.0 mi NNW 10.4 mph - N/A   Clear